This is the latest recevied weather packets stored in our database for station/object K9YK-13. If no packets are shown the sender has not sent any weather packets the latest 10 day(s).
| Time | Temp. | Humidity | Pressure | Rain* | Wind** | Luminosity | Snow |
|---|---|---|---|---|---|---|---|
| 1777689672 | 7.22° C | 83% | 0 hPa | 0 mm | - | - | - |
| 1777689372 | 7.78° C | 76% | 0 hPa | 0 mm | - | - | - |
| 1777689072 | 7.78° C | 83% | 0 hPa | 0 mm | - | - | - |
| 1777688772 | 7.78° C | 84% | 0 hPa | 0 mm | - | - | - |
| 1777688472 | 7.22° C | 83% | 0 hPa | 0 mm | - | - | - |
| 1777688172 | 8.89° C | 82% | 0 hPa | 0 mm | - | - | - |
| 1777687872 | 8.33° C | 82% | 0 hPa | 0 mm | - | - | - |
| 1777687572 | 8.33° C | 82% | 0 hPa | 0 mm | - | - | - |
| 1777687272 | 8.33° C | 82% | 0 hPa | 0 mm | - | - | - |
| 1777686972 | 7.78° C | 82% | 0 hPa | 0 mm | - | - | - |
| 1777686672 | 7.78° C | 82% | 0 hPa | 0 mm | - | - | - |
| 1777686372 | 7.78° C | 83% | 0 hPa | 0 mm | - | - | - |
| 1777686072 | 7.78° C | 83% | 0 hPa | 0 mm | - | - | - |
| 1777685772 | 7.78° C | 83% | 0 hPa | 0 mm | - | - | - |
| 1777685472 | 8.89° C | 78% | 0 hPa | 0 mm | - | - | - |
| 1777685172 | 8.89° C | 77% | 0 hPa | 0 mm | - | - | - |
| 1777684871 | 10° C | 77% | 0 hPa | 0 mm | - | - | - |
| 1777684572 | 8.89° C | 76% | 0 hPa | 0 mm | - | - | - |
| 1777684272 | 8.89° C | 76% | 0 hPa | 0 mm | - | - | - |
| 1777683972 | 9.44° C | 75% | 0 hPa | 0 mm | - | - | - |
| 1777683672 | 9.44° C | 74% | 0 hPa | 0 mm | - | - | - |
| 1777683372 | 9.44° C | 73% | 0 hPa | 0 mm | - | - | - |
| 1777683072 | 9.44° C | 72% | 0 hPa | 0 mm | - | - | - |
| 1777682772 | 9.44° C | 72% | 0 hPa | 0 mm | - | - | - |
| 1777682472 | 10° C | 72% | 0 hPa | 0 mm | - | - | - |
* Rain latest hour (hover to see other rain measurements)
** Current wind speed in m/s (hover to see current wind gust speed)